Vorticity
8 8 8 8 8 8 8 8 8 8 8 7 7 6 6 6 6 6 6 5 5 5 5 4 4 4 4 4 4 4 5 5 5 6 6 8 10 12 14 16 17 19 20 21 22 23 24 25 26 27 27 27 27 27 27 27 28 28 28 28 27 25 24 22 21 20 20 20 20 20 19 19 19 19 19 19 20 20 20 20 20 20 20 21 22 23
8 8 8 8 8 8 8 7 7 6 7 7 6 6 6 6 5 5 5 5 5 5 5 5 5 4 4 4 4 5 5 6 6 7 9 11 13 15 18 19 20 22 23 24 25 26 27 28 28 28 28 28 28 28 29 29 28 27 26 23 21 20 19 19 19 19 20 20 20 21 20 20 20 20 20 20 21 21 20 19 19 19 19 20 21 21
8 9 9 8 8 8 8 7 6 6 6 6 6 6 5 5 5 5 5 5 5 5 5 5 5 5 5 5 5 6 6 7 8 10 12 15 17 19 21 22 23 24 25 27 28 28 29 28 28 28 28 29 29 29 28 26 24 22 19 18 17 17 18 20 21 22 23 23 23 23 22 21 21 20 20 20 20 20 18 17 16 16 16 16 16 16
8 9 9 8 8 7 6 6 6 5 5 5 5 5 4 4 5 5 5 5 5 6 5 5 5 5 6 6 6 7 8 10 13 15 17 19 21 22 23 24 25 27 28 29 29 29 29 29 29 29 29 29 28 26 23 21 18 17 16 17 18 20 22 24 25 26 26 26 25 24 22 21 21 20 19 19 18 17 15 14 13 12 12 12 12 11
8 8 8 8 7 7 6 5 5 5 5 4 4 4 4 4 5 5 5 5 5 5 6 6 6 6 7 8 9 11 13 15 18 20 22 23 24 25 26 27 28 29 29 30 30 29 29 29 29 28 27 25 22 20 17 16 16 16 18 21 23 25 27 28 28 28 27 26 24 23 21 20 19 18 17 16 14 13 12 10 9 9 9 9 9 9
7 7 7 7 6 6 6 5 4 5 5 5 4 4 4 4 5 6 6 6 6 6 6 6 7 8 10 12 14 16 19 21 23 25 26 27 28 28 29 30 30 30 30 30 30 30 30 29 27 25 22 19 17 15 14 15 17 20 23 25 27 28 29 28 27 25 24 22 20 19 18 16 15 14 13 12 10 9 8 7 6 6 7 7 8 9
7 6 6 6 5 5 4 4 4 4 5 6 5 4 4 5 5 5 6 6 6 7 7 9 11 13 15 17 20 22 24 26 27 28 29 30 30 31 31 31 31 32 32 31 31 30 28 25 22 19 17 15 14 14 15 18 21 24 26 27 27 26 25 23 21 19 17 16 14 13 13 12 11 10 8 7 6 6 5 5 5 6 7 8 9 10
6 6 5 5 5 4 4 3 4 4 5 6 6 6 5 5 6 6 6 7 8 9 11 13 16 19 22 24 25 27 28 29 30 31 32 31 32 32 32 32 32 32 32 31 29 26 23 20 17 15 14 13 14 15 18 21 24 25 25 24 22 19 17 15 13 12 10 10 9 9 8 7 7 6 5 5 4 4 4 5 6 7 8 10 11 12
5 5 4 4 4 4 5 4 4 4 5 6 6 6 6 7 7 8 8 10 12 14 16 18 20 24 27 29 30 31 32 32 33 33 33 32 32 32 32 32 32 31 29 27 24 21 18 16 15 14 13 14 15 17 20 22 23 22 20 17 14 11 9 8 7 7 7 7 7 7 6 6 6 6 5 5 5 5 6 6 8 9 10 12 13 13
4 4 5 4 4 4 5 5 5 5 5 6 6 6 7 9 10 10 12 14 17 20 22 23 25 27 29 32 33 34 35 35 35 34 34 33 32 32 31 30 29 27 24 21 19 17 15 15 14 14 14 15 16 18 20 20 19 16 13 10 7 6 5 5 5 6 6 7 8 8 9 9 9 9 8 8 8 8 8 9 10 11 12 13 14 14
4 4 4 5 4 4 4 5 5 6 5 6 7 9 11 13 13 14 16 18 21 24 27 29 31 32 32 34 35 35 35 35 35 35 33 32 31 29 27 26 23 21 19 17 16 15 15 15 15 14 15 16 17 18 18 17 14 10 7 4 3 3 3 4 5 6 8 9 11 12 13 14 14 14 13 13 12 12 12 12 12 13 13 14 14 14
4 4 4 5 5 5 4 5 5 6 6 8 10 13 16 18 19 19 20 22 24 26 28 31 35 38 39 37 36 35 35 34 32 31 28 27 25 24 22 21 19 17 16 15 15 15 15 15 15 15 15 15 16 16 15 13 9 6 3 2 1 2 2 4 5 7 9 11 13 15 17 19 19 19 18 17 16 16 15 14 14 14 15 15 15 14
4 4 4 5 5 5 5 6 6 7 9 11 14 16 18 19 21 22 24 26 28 30 30 32 36 40 42 39 37 34 31 29 27 24 22 21 19 18 18 16 15 14 14 14 14 15 15 15 15 15 14 14 14 14 12 9 6 3 1 0 1 2 3 4 6 7 9 11 14 17 20 21 22 22 21 20 19 18 16 16 15 15 15 15 14 13
4 5 5 5 5 5 6 7 8 10 13 16 18 20 21 21 22 25 27 30 32 33 33 35 36 37 37 35 32 29 25 22 20 18 17 16 16 15 15 14 14 14 14 14 14 15 15 15 15 14 14 13 13 12 10 7 4 2 0 0 1 2 3 4 6 7 8 11 14 17 20 22 22 22 21 20 19 18 17 16 16 15 15 14 13 12
5 6 6 6 6 7 8 10 12 14 17 20 22 24 24 26 27 28 29 31 31 32 34 36 38 38 35 30 25 21 19 17 16 15 14 14 13 13 13 13 13 13 13 14 14 15 15 15 15 14 13 12 11 10 8 5 3 1 0 0 1 2 3 4 5 6 8 11 14 17 20 22 23 22 22 20 19 18 17 16 16 15 14 13 12 11
6 6 6 7 8 10 12 14 16 19 22 25 27 28 28 29 30 30 31 31 31 32 34 35 35 34 32 25 20 17 15 14 14 13 13 13 12 12 12 13 13 13 13 13 14 14 15 15 14 13 12 11 10 9 7 5 3 2 1 1 2 3 3 4 4 5 7 10 14 17 20 22 23 22 22 20 19 18 17 16 15 14 13 12 11 10
6 7 8 9 11 14 16 19 21 24 26 29 31 32 33 31 30 31 32 32 32 34 36 35 33 29 22 20 17 15 13 13 12 12 12 12 12 12 12 13 13 13 13 13 13 14 14 14 14 13 12 11 9 8 7 5 4 3 2 2 3 3 3 3 4 5 7 10 13 17 19 21 22 22 21 20 18 17 16 14 13 12 11 10 9 8
7 9 10 13 15 18 20 23 25 28 30 32 33 33 34 33 32 32 33 32 33 33 33 33 32 29 24 19 15 13 11 11 11 11 12 12 12 12 13 13 13 13 13 13 13 13 14 14 14 13 12 11 9 8 7 6 4 4 3 3 3 3 3 3 4 6 8 11 13 16 18 19 20 20 19 18 17 15 14 13 11 10 9 8 7 7
10 12 14 17 20 22 23 26 28 30 32 33 32 30 30 31 32 32 32 32 32 32 30 29 28 26 24 21 17 14 13 12 12 12 12 13 13 13 13 13 13 13 13 13 13 13 13 13 13 13 12 11 9 8 7 6 5 4 4 4 3 3 3 3 5 6 9 11 14 16 17 18 18 17 16 15 14 13 12 10 9 8 7 7 6 6
13 16 20 22 22 24 26 30 32 33 34 33 32 31 31 30 30 31 31 30 29 29 28 26 24 22 21 20 18 16 15 14 13 13 13 13 14 14 14 13 13 13 13 13 13 13 13 13 13 13 12 11 10 8 7 6 5 4 4 4 3 3 3 4 5 7 10 12 14 15 16 16 15 15 13 12 11 10 9 8 7 6 6 5 5 5
17 21 25 25 26 27 29 31 33 34 34 32 32 33 32 31 31 31 29 28 26 25 24 23 20 18 17 16 15 15 15 14 14 14 15 15 15 14 14 13 13 13 13 13 13 12 13 13 13 13 13 12 11 10 8 7 6 5 4 4 4 4 4 4 6 8 10 12 13 14 15 14 13 12 11 10 9 8 7 6 5 5 4 4 4 5
22 25 27 28 30 31 31 32 34 34 34 33 33 32 30 30 30 29 27 25 23 22 20 17 15 14 15 14 14 14 14 14 15 16 16 16 15 14 14 13 12 12 12 13 12 12 12 13 13 14 13 13 12 11 10 8 7 6 5 5 4 4 5 5 7 8 10 12 13 14 14 13 12 11 10 8 7 6 5 4 4 4 4 4 4 4
26 27 28 30 32 33 32 33 34 35 35 34 33 31 30 30 29 27 24 22 20 18 16 15 15 15 15 14 14 14 14 14 15 16 16 15 15 14 13 12 12 12 12 12 12 11 11 12 13 14 14 14 13 12 11 10 9 8 7 6 6 6 6 7 8 9 11 12 13 13 13 12 11 10 9 8 6 6 5 4 4 3 3 4 4 5
29 30 31 32 32 33 33 34 34 34 34 33 32 30 30 30 28 25 21 19 17 16 15 16 15 15 14 14 14 13 13 13 14 15 15 14 14 14 13 12 12 12 12 12 11 10 10 11 12 13 13 13 13 13 12 11 10 10 9 8 8 8 8 8 9 10 11 13 13 13 13 12 11 10 9 8 7 6 5 5 4 4 4 4 5 6
31 31 32 32 32 33 34 34 34 34 32 30 29 28 28 26 24 20 17 15 14 14 15 15 15 15 14 14 14 13 12 13 13 14 14 14 14 13 13 12 11 11 11 11 10 10 9 10 10 11 12 12 12 12 12 12 11 11 10 10 9 9 9 9 9 10 11 12 13 13 13 12 11 10 10 9 8 7 6 6 6 5 6 6 7 7
32 32 32 32 33 34 35 35 34 33 30 28 27 25 24 22 19 17 14 13 12 13 14 14 13 13 14 14 13 12 11 12 12 12 13 14 13 13 12 12 11 11 10 10 10 9 9 9 9 9 10 10 10 11 11 11 11 10 10 10 10 10 9 9 9 10 10 12 13 13 13 13 12 11 10 10 9 9 8 7 7 7 7 7 8 8
33 33 33 34 34 35 35 34 32 30 28 26 24 22 21 19 16 14 12 11 10 11 12 11 11 12 12 11 11 10 11 11 11 12 13 13 13 12 12 12 11 11 11 11 11 10 9 9 9 9 9 9 9 9 9 9 9 10 10 10 10 9 9 9 9 9 10 11 12 13 13 13 12 11 11 10 10 10 9 9 8 8 8 8 8 9
34 34 35 36 36 35 34 32 30 28 26 23 21 19 17 16 14 13 11 11 11 11 10 10 10 11 11 10 10 10 11 11 12 12 13 12 12 12 13 13 13 13 13 13 13 13 12 12 11 11 10 9 8 8 9 9 9 9 9 9 9 9 9 9 9 9 9 10 11 12 13 13 13 12 12 11 11 11 10 10 9 9 9 9 9 9
37 37 37 37 36 35 33 30 28 26 24 21 18 16 14 13 12 12 12 13 13 12 11 10 10 10 11 11 11 11 11 11 12 13 13 13 13 13 14 15 15 16 16 16 17 17 17 16 15 14 13 11 10 10 10 10 9 9 9 9 10 10 10 10 10 10 10 10 11 12 13 13 13 13 13 13 12 12 11 11 10 10 9 9 9 9
39 39 39 38 36 33 30 28 26 23 21 18 15 13 11 10 10 11 12 13 13 12 13 12 12 11 12 12 12 12 12 13 14 14 13 13 14 15 15 16 16 16 17 18 18 19 19 19 19 18 16 14 14 13 12 11 11 11 11 11 11 11 11 11 11 11 11 11 12 13 13 14 14 14 14 14 14 13 12 12 11 10 10 10 9 9
40 39 38 36 33 30 27 24 22 20 17 14 12 10 9 9 9 10 11 11 11 12 13 13 13 13 13 13 13 14 15 15 15 14 14 14 15 15 15 15 15 15 15 15 16 17 18 19 19 18 18 17 16 15 14 13 13 12 12 12 13 13 12 12 12 12 12 12 13 13 14 15 15 16 16 16 15 14 13 13 12 11 11 10 10 9
41 39 37 33 29 26 23 21 18 16 13 11 10 9 9 9 9 9 9 10 11 12 12 13 13 13 13 14 14 15 16 15 15 14 14 14 14 13 13 13 12 12 11 11 11 12 13 13 14 15 16 16 15 15 14 13 13 13 13 13 13 13 13 12 12 12 12 12 13 13 14 15 16 16 16 16 16 15 14 14 13 13 12 11 10 10
41 38 34 29 26 22 19 17 15 13 11 10 10 10 9 9 9 9 9 10 11 12 12 13 13 14 14 14 15 15 15 15 14 13 13 13 12 11 11 10 9 9 8 8 7 7 8 9 9 10 11 12 13 13 12 12 11 11 11 11 11 11 11 11 11 11 11 11 12 12 13 14 15 16 16 16 16 15 14 14 14 13 13 12 11 10
38 33 29 25 21 18 16 14 12 11 10 10 10 10 9 9 10 10 11 12 12 12 13 13 14 14 15 15 14 14 13 12 12 11 11 10 10 9 9 8 8 8 8 8 7 7 7 8 8 8 8 9 10 11 11 10 10 9 8 9 9 9 9 9 9 9 9 9 10 10 11 13 14 15 16 15 15 14 14 14 14 13 13 12 11 11
33 28 23 19 17 14 13 12 11 10 10 10 10 10 10 11 12 13 13 13 13 13 13 13 14 14 14 13 13 12 10 10 9 9 9 9 9 9 9 9 9 10 10 10 10 11 11 11 11 11 11 10 10 10 10 10 9 8 7 7 7 7 7 7 7 7 7 8 8 9 9 10 12 13 14 14 13 13 13 13 13 13 13 12 11 11
27 22 18 15 13 12 11 11 11 10 10 9 10 10 11 13 13 14 14 13 13 13 13 13 12 12 11 11 10 10 9 9 9 9 9 10 11 12 12 12 13 13 13 13 14 14 14 14 14 14 14 14 13 12 11 10 10 9 8 7 7 6 6 6 6 6 6 7 7 7 7 9 10 11 12 12 12 11 11 11 11 11 12 11 11 11
20 16 13 12 11 11 11 10 10 10 9 10 11 12 13 14 14 14 13 13 13 12 12 11 10 9 9 8 8 8 9 9 9 10 10 11 12 12 13 13 14 14 14 15 15 15 15 15 15 15 15 16 16 16 15 14 13 12 10 9 7 7 6 6 6 6 6 6 6 6 7 7 8 9 10 10 10 10 9 9 10 10 10 10 10 10
15 12 10 10 10 10 10 10 9 10 10 12 13 14 14 14 13 13 13 12 12 11 10 9 8 8 7 7 7 7 8 8 8 9 9 10 11 11 11 12 12 12 12 13 13 14 14 14 14 15 15 16 16 17 18 18 17 16 14 12 11 9 8 7 7 7 7 7 7 7 7 7 8 8 9 9 9 9 8 8 8 8 9 9 9 9
11 10 10 10 10 10 10 10 10 11 13 13 14 14 14 13 13 12 11 10 10 9 8 7 6 6 6 6 7 7 7 7 8 9 9 10 10 10 10 10 11 11 11 11 11 12 12 13 13 13 14 14 15 15 16 18 19 19 18 17 16 15 12 10 9 8 8 8 8 8 8 8 8 9 9 9 9 9 9 8 8 8 8 7 8 9
10 10 10 10 10 10 10 11 12 13 14 14 14 13 13 13 12 11 10 8 7 6 6 6 6 6 6 7 7 8 8 9 10 10 10 10 10 10 10 10 10 10 10 10 10 11 11 11 11 11 12 12 13 13 13 15 16 17 18 19 19 18 16 14 13 11 10 10 9 9 8 9 9 9 10 10 10 10 10 9 9 8 7 7 7 7
10 10 10 10 10 11 11 13 14 14 14 14 14 13 13 12 10 9 7 6 6 6 6 7 8 9 9 10 10 11 11 11 12 12 12 12 11 11 10 10 10 10 10 10 10 10 10 10 10 10 10 10 10 11 11 11 12 13 15 17 18 18 18 17 16 14 13 12 11 10 10 9 9 10 10 11 11 12 12 11 10 9 8 7 6 7
10 10 11 12 12 13 14 14 14 14 14 13 13 12 11 9 8 6 6 6 7 8 9 9 10 11 12 13 13 13 13 13 13 12 12 12 11 11 11 10 10 10 10 10 9 9 9 9 9 9 9 9 9 9 9 9 10 10 11 12 13 14 16 17 17 16 15 14 13 12 11 10 10 10 11 11 12 13 13 13 12 10 9 8 7 7
10 11 12 13 14 14 15 15 14 13 13 12 11 9 8 7 6 6 7 8 9 10 11 11 11 12 13 13 13 13 12 11 11 10 10 10 10 9 9 8 8 8 8 8 8 8 8 8 8 8 8 8 8 8 8 8 8 8 9 9 10 10 12 13 13 14 15 14 14 13 13 12 11 11 11 12 13 14 14 14 13 12 10 10 9 8
11 12 13 14 14 14 14 13 13 12 11 9 8 7 6 6 6 7 8 10 11 12 12 12 12 12 11 11 11 10 10 9 8 7 7 7 7 7 7 7 7 8 8 8 9 9 9 9 8 8 8 8 8 8 8 8 8 8 8 8 9 9 10 9 9 11 12 13 13 13 13 13 12 12 12 12 13 14 15 15 14 13 12 11 10 9
13 14 14 14 14 14 13 12 11 10 8 7 6 6 6 7 8 9 10 11 12 12 12 11 11 10 9 9 8 8 8 8 8 8 8 9 9 10 10 11 11 12 12 12 13 13 13 13 13 12 12 11 11 10 10 10 10 10 9 9 9 10 10 10 10 11 11 11 12 13 13 12 12 12 12 12 13 13 14 15 14 14 13 12 11 10
14 14 14 14 14 13 12 11 9 7 6 6 6 7 8 9 10 10 11 11 11 11 10 10 9 9 9 9 9 10 11 12 13 14 15 16 17 18 18 19 19 20 20 20 20 20 20 19 19 19 18 18 17 16 15 14 14 13 13 12 12 12 12 12 12 12 12 12 12 12 12 12 12 12 12 12 12 13 14 15 15 14 14 13 12 11
15 15 15 14 13 12 10 9 7 6 6 6 7 8 9 10 11 11 11 10 10 9 9 9 9 10 11 13 14 15 17 18 20 21 22 23 24 25 25 26 26 26 26 26 26 26 26 25 25 24 24 24 23 23 21 20 19 18 18 17 16 16 15 15 15 15 15 15 14 13 13 12 12 12 12 12 12 13 14 15 15 15 14 13 12 11
15 15 14 13 12 10 8 7 6 6 7 8 9 10 11 11 11 11 10 9 9 10 10 12 13 15 17 19 20 22 22 23 23 24 24 24 24 24 24 24 25 25 25 25 25 25 25 25 26 26 26 26 26 26 25 24 24 23 23 22 21 21 20 20 19 19 19 18 17 16 15 14 13 13 12 12 13 13 15 16 16 16 15 14 13 11
14 14 13 11 10 8 7 6 6 7 8 9 10 11 11 11 10 10 10 10 11 13 15 18 20 21 23 23 24 23 23 22 22 22 22 22 22 22 22 23 23 23 23 23 23 23 23 23 23 24 24 24 25 26 26 26 25 25 25 25 25 24 24 24 23 23 22 21 20 19 17 17 16 15 14 14 14 15 16 16 16 16 15 14 13 12
13 12 11 9 8 7 6 7 7 8 10 11 11 11 10 10 10 10 12 14 17 19 22 23 24 24 23 22 21 20 20 20 20 20 21 21 22 23 24 25 26 26 26 25 24 24 23 23 23 23 23 22 22 23 25 25 25 25 25 26 26 26 26 26 26 25 24 23 22 21 20 19 18 17 17 16 16 16 17 18 17 16 15 14 13 12
12 10 9 8 7 7 7 8 9 10 11 11 10 10 9 10 12 14 17 20 22 24 24 23 22 21 20 19 18 18 18 19 20 21 22 22 24 26 27 28 29 30 30 29 28 26 25 23 23 23 24 23 22 22 22 23 24 24 24 24 25 25 26 26 26 25 25 24 23 22 22 21 20 19 19 18 18 18 19 18 18 16 15 14 13 12
Height
5578 5576 5574 5572 5570 5568 5566 5564 5562 5559 5557 5555 5553 5550 5548 5546 5544 5543 5541 5539 5538 5536 5535 5533 5532 5530 5528 5525 5523 5520 5518 5515 5513 5511 5509 5508 5506 5503 5502 5500 5498 5497 5495 5494 5493 5491 5490 5488 5488 5486 5485 5484 5483 5483 5482 5481 5480 5479 5479 5478 5478 5478 5478 5477 5477 5477 5477 5477 5477 5477 5477 5477 5477 5477 5477 5477 5477 5477 5476 5475 5474 5473 5473 5474 5474 5475
5572 5570 5568 5566 5564 5562 5560 5558 5556 5553 5550 5548 5546 5544 5542 5540 5538 5536 5534 5532 5530 5528 5527 5525 5524 5522 5520 5518 5515 5513 5510 5508 5506 5504 5502 5500 5498 5496 5494 5492 5491 5489 5488 5487 5485 5484 5483 5482 5481 5480 5479 5478 5477 5476 5476 5475 5474 5474 5473 5473 5473 5472 5472 5472 5472 5472 5472 5472 5472 5472 5472 5472 5472 5472 5472 5472 5472 5472 5472 5471 5470 5469 5469 5469 5470 5471
5567 5564 5562 5560 5558 5557 5554 5552 5549 5547 5544 5542 5539 5537 5535 5533 5531 5529 5527 5525 5523 5520 5519 5517 5516 5514 5512 5510 5507 5505 5502 5500 5498 5496 5494 5492 5490 5488 5487 5485 5483 5482 5481 5479 5478 5477 5476 5475 5474 5473 5473 5472 5471 5470 5470 5469 5469 5468 5468 5468 5467 5467 5467 5467 5467 5467 5466 5466 5467 5467 5467 5467 5467 5467 5467 5467 5468 5468 5467 5466 5465 5465 5465 5466 5466 5466
5561 5558 5556 5554 5552 5550 5548 5546 5543 5540 5538 5535 5533 5531 5528 5527 5524 5522 5519 5518 5515 5513 5511 5509 5507 5505 5503 5501 5499 5496 5494 5492 5490 5488 5486 5484 5483 5481 5479 5478 5476 5475 5474 5473 5472 5471 5470 5469 5468 5467 5467 5466 5465 5465 5464 5464 5464 5463 5463 5463 5463 5462 5462 5462 5462 5462 5462 5462 5462 5462 5462 5462 5463 5463 5463 5463 5463 5463 5463 5462 5462 5462 5462 5462 5463 5463
5555 5552 5549 5548 5546 5544 5542 5539 5536 5533 5530 5528 5526 5524 5522 5519 5517 5514 5512 5510 5508 5505 5503 5501 5498 5497 5494 5493 5490 5488 5486 5483 5481 5479 5478 5476 5474 5473 5472 5470 5469 5468 5468 5467 5466 5465 5464 5463 5462 5462 5461 5461 5460 5460 5460 5460 5459 5459 5459 5458 5458 5458 5458 5458 5457 5457 5458 5458 5458 5458 5458 5458 5458 5458 5458 5459 5459 5459 5459 5459 5458 5458 5458 5459 5459 5459
5548 5546 5543 5541 5539 5537 5535 5532 5529 5526 5523 5521 5519 5517 5515 5512 5509 5507 5504 5502 5500 5498 5495 5493 5490 5488 5486 5483 5482 5479 5478 5475 5473 5471 5469 5468 5467 5465 5464 5463 5463 5462 5461 5460 5460 5459 5458 5458 5457 5457 5456 5456 5456 5456 5455 5455 5455 5455 5454 5454 5454 5453 5453 5453 5453 5453 5454 5454 5454 5454 5454 5454 5454 5455 5455 5455 5455 5455 5455 5455 5455 5455 5455 5455 5455 5456
5542 5539 5537 5534 5532 5530 5528 5526 5522 5518 5516 5514 5512 5510 5508 5505 5502 5499 5497 5494 5492 5490 5487 5484 5482 5479 5477 5475 5473 5471 5469 5467 5465 5463 5461 5460 5459 5458 5458 5457 5456 5456 5455 5455 5454 5454 5453 5453 5452 5452 5452 5452 5452 5451 5451 5451 5451 5451 5450 5450 5450 5450 5450 5450 5450 5450 5450 5450 5451 5451 5451 5451 5451 5451 5451 5451 5451 5452 5452 5452 5452 5452 5452 5452 5452 5452
5534 5533 5531 5528 5526 5523 5521 5519 5516 5512 5508 5506 5504 5503 5501 5498 5494 5492 5489 5487 5484 5482 5479 5477 5474 5471 5468 5466 5464 5463 5461 5459 5458 5456 5454 5453 5452 5452 5451 5451 5450 5450 5450 5449 5449 5449 5448 5448 5448 5448 5448 5448 5448 5447 5447 5447 5447 5447 5447 5447 5447 5447 5447 5447 5447 5447 5447 5447 5447 5448 5448 5448 5448 5448 5448 5448 5448 5448 5448 5448 5448 5448 5448 5448 5448 5448
5528 5526 5523 5522 5520 5518 5515 5512 5508 5505 5502 5499 5497 5494 5493 5490 5487 5484 5482 5480 5477 5474 5471 5469 5466 5463 5460 5458 5456 5454 5453 5451 5450 5449 5448 5447 5446 5445 5445 5445 5445 5445 5445 5445 5444 5444 5444 5444 5444 5443 5443 5443 5443 5443 5443 5443 5443 5443 5443 5443 5443 5444 5444 5444 5444 5444 5444 5444 5444 5444 5444 5444 5444 5444 5444 5444 5444 5444 5444 5444 5444 5445 5445 5444 5444 5444
5521 5519 5517 5515 5513 5511 5508 5505 5502 5498 5494 5492 5489 5486 5483 5481 5478 5476 5474 5472 5469 5466 5463 5460 5458 5456 5453 5450 5447 5446 5446 5445 5443 5442 5442 5441 5440 5440 5440 5440 5440 5440 5440 5440 5440 5440 5440 5440 5440 5440 5439 5439 5439 5439 5440 5440 5440 5440 5440 5440 5441 5441 5441 5441 5441 5441 5441 5441 5441 5441 5440 5440 5440 5440 5440 5440 5440 5440 5441 5441 5441 5441 5441 5441 5441 5441
5513 5512 5510 5508 5505 5503 5501 5498 5495 5492 5488 5485 5481 5478 5474 5471 5469 5468 5466 5464 5461 5458 5455 5452 5450 5448 5447 5444 5440 5438 5438 5438 5438 5436 5436 5436 5435 5435 5435 5435 5436 5436 5436 5436 5436 5436 5436 5436 5436 5436 5436 5436 5436 5436 5436 5436 5437 5437 5437 5437 5438 5438 5438 5438 5438 5438 5438 5438 5437 5437 5437 5437 5437 5436 5436 5436 5437 5437 5437 5437 5437 5437 5438 5438 5438 5438
5506 5504 5502 5501 5498 5496 5494 5491 5488 5485 5481 5478 5474 5470 5466 5462 5459 5458 5457 5456 5454 5451 5448 5445 5443 5440 5439 5438 5435 5433 5431 5432 5432 5432 5431 5431 5430 5431 5431 5431 5431 5431 5432 5432 5431 5431 5432 5432 5432 5432 5432 5432 5433 5433 5433 5433 5433 5434 5434 5434 5434 5434 5435 5435 5435 5435 5434 5434 5434 5434 5433 5433 5433 5433 5433 5433 5433 5433 5433 5433 5433 5434 5434 5434 5434 5434
5499 5497 5495 5493 5492 5489 5487 5483 5480 5477 5473 5470 5467 5463 5459 5455 5451 5449 5448 5447 5445 5444 5442 5440 5437 5434 5432 5431 5429 5428 5427 5427 5427 5427 5427 5426 5426 5426 5427 5427 5427 5427 5427 5427 5427 5427 5427 5428 5428 5428 5428 5429 5429 5429 5430 5430 5430 5431 5431 5431 5431 5431 5432 5432 5432 5431 5431 5431 5431 5430 5430 5429 5429 5429 5428 5428 5429 5429 5429 5430 5430 5430 5430 5431 5431 5431
5492 5489 5487 5485 5483 5481 5478 5476 5473 5469 5465 5462 5458 5455 5451 5448 5444 5442 5440 5439 5437 5436 5435 5434 5433 5430 5427 5425 5424 5423 5423 5423 5423 5423 5423 5423 5422 5422 5423 5423 5423 5423 5423 5423 5423 5423 5423 5423 5424 5424 5425 5425 5425 5426 5426 5427 5427 5428 5428 5428 5428 5428 5428 5428 5428 5428 5428 5428 5427 5427 5426 5426 5425 5425 5425 5425 5425 5425 5426 5426 5426 5427 5427 5427 5428 5428
5484 5482 5479 5477 5474 5472 5469 5467 5464 5460 5457 5453 5450 5447 5443 5440 5437 5434 5433 5432 5430 5429 5428 5428 5427 5425 5423 5422 5420 5419 5419 5419 5420 5420 5420 5419 5418 5418 5418 5418 5418 5419 5419 5419 5419 5419 5419 5419 5420 5420 5421 5421 5422 5422 5423 5423 5424 5424 5424 5425 5425 5425 5425 5425 5425 5425 5424 5424 5424 5423 5423 5422 5422 5422 5422 5422 5422 5422 5423 5423 5423 5423 5424 5424 5424 5425
5475 5473 5470 5467 5465 5463 5460 5457 5454 5452 5448 5445 5441 5438 5435 5432 5429 5427 5425 5424 5423 5423 5422 5422 5421 5420 5419 5418 5417 5416 5415 5415 5415 5416 5417 5415 5414 5414 5414 5415 5415 5415 5415 5415 5415 5415 5415 5416 5416 5416 5417 5418 5418 5418 5419 5420 5420 5421 5421 5421 5422 5422 5422 5422 5422 5421 5421 5421 5420 5420 5419 5419 5418 5418 5418 5418 5419 5419 5419 5420 5420 5420 5421 5421 5422 5422
5467 5464 5461 5458 5456 5453 5451 5448 5445 5443 5440 5437 5433 5429 5426 5424 5422 5420 5419 5418 5417 5417 5416 5416 5416 5416 5415 5415 5414 5413 5412 5411 5411 5412 5413 5413 5411 5410 5411 5411 5411 5411 5411 5411 5411 5411 5411 5412 5412 5413 5413 5413 5414 5415 5415 5416 5417 5417 5418 5418 5418 5418 5418 5418 5418 5418 5418 5417 5417 5416 5416 5416 5415 5415 5415 5415 5416 5416 5416 5417 5417 5418 5418 5418 5418 5419
5460 5457 5453 5450 5447 5444 5442 5439 5437 5435 5431 5428 5424 5421 5419 5417 5415 5414 5413 5412 5411 5411 5410 5410 5411 5411 5411 5411 5411 5409 5408 5408 5408 5409 5410 5409 5408 5408 5407 5407 5407 5407 5408 5408 5407 5407 5407 5408 5408 5408 5409 5410 5410 5411 5411 5412 5413 5413 5414 5414 5415 5415 5415 5415 5415 5415 5414 5414 5414 5413 5413 5413 5413 5413 5413 5413 5413 5413 5414 5414 5414 5415 5415 5415 5416 5416
5452 5449 5445 5442 5439 5436 5433 5431 5429 5427 5424 5420 5417 5415 5413 5411 5409 5408 5407 5406 5406 5406 5405 5406 5406 5407 5408 5408 5407 5406 5406 5405 5405 5405 5406 5406 5406 5405 5404 5403 5403 5404 5404 5404 5404 5403 5403 5404 5404 5405 5405 5406 5406 5407 5407 5408 5408 5409 5410 5411 5411 5411 5412 5412 5412 5412 5412 5411 5411 5411 5410 5410 5410 5410 5410 5410 5410 5411 5411 5411 5412 5412 5413 5413 5413 5413
5444 5441 5437 5434 5431 5428 5425 5423 5421 5419 5416 5413 5410 5408 5407 5405 5404 5403 5402 5401 5401 5400 5401 5401 5402 5403 5404 5404 5404 5403 5403 5402 5402 5402 5403 5403 5403 5402 5401 5400 5400 5400 5401 5401 5400 5400 5400 5400 5401 5401 5402 5402 5402 5403 5403 5404 5404 5405 5406 5407 5407 5408 5408 5408 5408 5408 5408 5408 5408 5408 5408 5408 5407 5407 5408 5408 5408 5408 5408 5409 5409 5409 5409 5410 5410 5410
5435 5432 5428 5426 5423 5421 5418 5415 5413 5411 5408 5406 5404 5402 5400 5399 5398 5398 5397 5397 5396 5396 5397 5398 5399 5399 5400 5400 5400 5399 5399 5398 5398 5398 5399 5399 5400 5399 5398 5397 5397 5397 5398 5397 5397 5396 5396 5397 5397 5398 5398 5398 5398 5399 5399 5400 5400 5401 5402 5402 5403 5404 5404 5405 5405 5405 5405 5405 5405 5405 5405 5405 5405 5405 5405 5405 5405 5405 5406 5406 5406 5406 5407 5407 5407 5407
5427 5424 5420 5417 5414 5412 5410 5408 5406 5403 5401 5399 5397 5396 5395 5394 5394 5393 5393 5393 5393 5393 5394 5395 5395 5395 5395 5396 5396 5395 5395 5395 5394 5394 5395 5395 5396 5396 5395 5394 5393 5393 5394 5394 5393 5393 5393 5393 5393 5394 5394 5395 5395 5395 5395 5396 5396 5397 5397 5398 5399 5400 5400 5401 5402 5402 5402 5402 5402 5402 5402 5402 5402 5402 5402 5402 5403 5403 5403 5403 5403 5403 5403 5403 5404 5404
5418 5415 5412 5409 5406 5404 5402 5401 5399 5397 5395 5393 5392 5390 5389 5390 5390 5389 5389 5390 5390 5390 5390 5390 5390 5391 5391 5391 5392 5392 5392 5391 5391 5391 5391 5391 5392 5393 5392 5391 5390 5390 5391 5391 5390 5390 5389 5390 5390 5391 5391 5391 5391 5391 5392 5392 5392 5393 5393 5394 5394 5395 5396 5397 5398 5398 5398 5399 5399 5399 5399 5399 5399 5399 5399 5399 5399 5400 5400 5400 5400 5400 5400 5401 5401 5401
5409 5406 5404 5402 5399 5397 5396 5395 5393 5392 5389 5388 5387 5386 5386 5386 5386 5386 5385 5386 5386 5385 5386 5386 5387 5387 5388 5388 5388 5388 5388 5388 5387 5387 5387 5387 5388 5389 5389 5388 5387 5387 5388 5388 5387 5386 5386 5386 5387 5387 5387 5388 5388 5388 5388 5388 5388 5389 5389 5390 5390 5391 5392 5393 5393 5394 5395 5395 5395 5396 5396 5396 5396 5396 5396 5397 5397 5397 5397 5397 5397 5397 5397 5398 5398 5397
5401 5399 5396 5394 5393 5391 5390 5389 5387 5386 5384 5383 5382 5382 5382 5381 5381 5381 5381 5381 5381 5382 5382 5383 5383 5384 5384 5385 5385 5385 5385 5384 5383 5383 5383 5383 5384 5385 5385 5385 5384 5384 5384 5384 5384 5383 5383 5383 5384 5384 5384 5384 5384 5384 5384 5384 5385 5385 5385 5386 5386 5387 5388 5388 5389 5390 5391 5392 5392 5393 5393 5393 5393 5393 5393 5394 5394 5394 5394 5394 5394 5394 5394 5394 5394 5394
5395 5393 5390 5388 5387 5386 5384 5383 5382 5381 5380 5379 5378 5377 5376 5377 5377 5377 5378 5378 5378 5378 5378 5378 5379 5380 5381 5381 5381 5382 5382 5381 5380 5379 5379 5379 5379 5381 5382 5382 5381 5380 5381 5381 5381 5380 5380 5380 5381 5381 5381 5381 5381 5381 5381 5381 5381 5381 5382 5382 5383 5383 5384 5384 5385 5386 5387 5388 5388 5389 5389 5390 5390 5390 5391 5391 5391 5391 5391 5391 5391 5391 5391 5391 5391 5391
5389 5387 5384 5383 5381 5380 5379 5378 5377 5376 5375 5374 5374 5373 5373 5373 5374 5374 5375 5375 5375 5375 5375 5375 5376 5377 5377 5377 5378 5378 5378 5378 5377 5376 5375 5375 5375 5377 5378 5378 5377 5377 5378 5378 5378 5378 5377 5378 5378 5378 5378 5377 5377 5377 5377 5377 5378 5378 5378 5378 5379 5379 5380 5380 5381 5382 5383 5384 5385 5386 5386 5387 5387 5387 5388 5388 5388 5388 5388 5388 5388 5388 5388 5388 5388 5388
5383 5381 5379 5377 5376 5375 5374 5373 5372 5372 5371 5370 5370 5370 5370 5371 5371 5371 5372 5373 5373 5372 5372 5372 5373 5373 5373 5374 5374 5374 5374 5374 5373 5372 5371 5371 5371 5373 5374 5374 5373 5373 5374 5375 5375 5375 5375 5375 5375 5375 5374 5374 5374 5374 5374 5374 5374 5374 5374 5375 5375 5376 5376 5377 5378 5378 5379 5380 5381 5382 5383 5383 5383 5384 5384 5385 5385 5385 5385 5385 5385 5385 5385 5385 5385 5385
5377 5375 5373 5372 5371 5370 5369 5369 5368 5368 5368 5367 5367 5367 5368 5368 5368 5368 5369 5370 5370 5369 5369 5370 5370 5370 5370 5370 5371 5371 5371 5371 5370 5368 5368 5367 5368 5369 5370 5370 5370 5370 5371 5371 5372 5373 5373 5373 5372 5372 5371 5371 5371 5370 5370 5371 5371 5371 5371 5371 5372 5372 5373 5373 5374 5374 5375 5376 5377 5378 5379 5379 5380 5381 5381 5382 5382 5382 5382 5382 5382 5382 5383 5383 5383 5383
5373 5371 5369 5368 5367 5367 5366 5365 5365 5364 5364 5364 5364 5364 5364 5365 5365 5366 5366 5367 5367 5367 5367 5367 5367 5367 5367 5367 5367 5368 5368 5367 5366 5365 5364 5364 5365 5366 5367 5367 5367 5368 5368 5368 5368 5369 5370 5370 5369 5369 5368 5368 5368 5368 5368 5368 5368 5368 5368 5368 5368 5369 5369 5370 5370 5371 5372 5373 5373 5374 5375 5376 5377 5377 5378 5378 5379 5379 5379 5379 5379 5379 5380 5380 5380 5380
5368 5367 5365 5364 5363 5363 5363 5362 5362 5362 5362 5362 5362 5362 5362 5362 5362 5363 5363 5363 5363 5363 5363 5363 5364 5364 5363 5363 5364 5364 5364 5364 5363 5362 5361 5362 5362 5363 5363 5363 5364 5364 5364 5364 5365 5366 5367 5368 5367 5366 5366 5365 5365 5365 5365 5364 5364 5364 5365 5365 5365 5366 5366 5366 5367 5367 5368 5369 5370 5371 5372 5373 5373 5374 5375 5375 5376 5376 5376 5376 5377 5377 5377 5377 5377 5377
5364 5363 5362 5361 5360 5360 5360 5359 5359 5359 5359 5359 5359 5359 5359 5360 5360 5360 5360 5360 5360 5360 5360 5360 5361 5361 5361 5361 5361 5361 5361 5361 5360 5359 5358 5359 5360 5360 5361 5361 5361 5361 5361 5362 5362 5363 5364 5364 5365 5364 5363 5363 5363 5362 5362 5362 5362 5362 5362 5362 5363 5363 5363 5363 5363 5364 5364 5365 5366 5367 5368 5369 5370 5371 5372 5372 5373 5373 5373 5373 5374 5374 5374 5374 5375 5375
5359 5358 5358 5358 5357 5357 5357 5357 5357 5357 5357 5357 5357 5357 5357 5357 5357 5357 5357 5357 5357 5357 5357 5357 5358 5358 5358 5358 5358 5358 5358 5358 5357 5356 5356 5357 5358 5358 5358 5358 5358 5358 5358 5358 5359 5359 5360 5361 5361 5362 5361 5361 5360 5360 5359 5359 5358 5358 5358 5359 5359 5360 5360 5360 5360 5360 5361 5362 5363 5363 5365 5366 5367 5368 5369 5369 5370 5370 5371 5371 5371 5371 5372 5372 5372 5372
5356 5355 5355 5355 5355 5355 5355 5355 5355 5355 5355 5355 5355 5355 5355 5354 5354 5354 5354 5354 5354 5354 5354 5354 5354 5354 5354 5355 5355 5355 5355 5355 5354 5353 5354 5354 5355 5355 5355 5355 5355 5355 5355 5355 5355 5355 5356 5357 5357 5358 5358 5358 5358 5358 5357 5356 5356 5355 5355 5356 5356 5356 5357 5357 5357 5357 5358 5358 5359 5360 5361 5363 5364 5365 5366 5367 5367 5368 5368 5368 5369 5369 5369 5369 5369 5369
5353 5353 5353 5353 5353 5353 5353 5353 5353 5353 5353 5353 5353 5352 5352 5352 5352 5352 5351 5351 5351 5351 5351 5351 5351 5352 5352 5352 5352 5352 5352 5352 5351 5351 5351 5351 5352 5352 5352 5352 5352 5352 5351 5351 5352 5352 5352 5353 5353 5354 5354 5355 5355 5355 5354 5353 5353 5353 5352 5352 5353 5353 5353 5353 5354 5354 5355 5356 5356 5357 5358 5359 5361 5362 5363 5364 5365 5365 5366 5366 5366 5367 5367 5367 5367 5367
5351 5351 5351 5351 5351 5351 5351 5351 5351 5351 5351 5350 5350 5350 5349 5349 5349 5349 5349 5348 5348 5348 5348 5348 5348 5348 5348 5348 5349 5349 5349 5348 5348 5348 5348 5348 5348 5348 5348 5348 5348 5348 5348 5348 5348 5348 5348 5348 5349 5349 5350 5350 5351 5351 5351 5351 5350 5350 5350 5349 5349 5350 5350 5350 5351 5351 5352 5353 5353 5354 5355 5356 5358 5359 5361 5362 5363 5363 5363 5364 5364 5364 5364 5364 5364 5364
5349 5349 5349 5349 5349 5349 5349 5349 5349 5348 5348 5348 5348 5347 5347 5347 5347 5346 5346 5346 5346 5346 5345 5345 5345 5345 5345 5345 5345 5345 5345 5345 5345 5344 5344 5344 5344 5345 5345 5345 5345 5345 5344 5344 5344 5344 5345 5345 5345 5345 5346 5346 5347 5347 5348 5348 5348 5347 5347 5347 5347 5347 5347 5348 5348 5348 5349 5349 5350 5351 5352 5353 5354 5356 5358 5359 5360 5361 5361 5362 5362 5362 5362 5362 5362 5362
5348 5348 5348 5348 5347 5347 5347 5347 5347 5346 5346 5346 5345 5345 5345 5344 5344 5344 5344 5343 5343 5343 5343 5343 5343 5342 5342 5342 5341 5341 5341 5341 5341 5341 5341 5340 5340 5341 5341 5341 5341 5341 5341 5341 5341 5341 5341 5341 5341 5342 5342 5342 5342 5343 5343 5344 5344 5344 5344 5344 5344 5344 5344 5345 5345 5345 5346 5347 5347 5348 5348 5349 5351 5353 5354 5356 5357 5358 5358 5359 5359 5359 5360 5360 5360 5360
5346 5346 5346 5346 5345 5345 5345 5345 5344 5344 5344 5343 5343 5343 5343 5342 5342 5342 5341 5341 5341 5341 5341 5340 5340 5339 5338 5338 5338 5338 5338 5338 5338 5337 5337 5337 5337 5337 5337 5337 5337 5337 5337 5337 5337 5337 5337 5337 5337 5338 5338 5338 5338 5338 5339 5339 5340 5340 5341 5341 5342 5342 5342 5342 5342 5343 5343 5343 5344 5345 5345 5346 5347 5349 5351 5353 5354 5355 5356 5357 5357 5357 5357 5357 5358 5358
5344 5344 5344 5344 5343 5343 5343 5343 5342 5342 5341 5341 5341 5341 5340 5340 5340 5340 5339 5339 5339 5338 5338 5338 5337 5337 5336 5335 5335 5335 5335 5335 5334 5334 5334 5333 5333 5333 5333 5334 5333 5333 5333 5333 5333 5333 5333 5333 5333 5333 5334 5334 5334 5334 5335 5335 5336 5336 5337 5338 5338 5338 5338 5339 5339 5339 5340 5341 5341 5342 5342 5343 5344 5345 5347 5349 5351 5352 5353 5354 5354 5354 5355 5355 5355 5356
5343 5343 5342 5342 5342 5341 5341 5340 5340 5340 5339 5339 5339 5339 5338 5338 5338 5338 5338 5337 5337 5337 5336 5336 5335 5334 5333 5333 5332 5332 5332 5332 5331 5331 5331 5330 5330 5330 5330 5330 5330 5330 5329 5329 5329 5329 5329 5329 5329 5329 5330 5330 5330 5331 5331 5331 5332 5332 5333 5333 5334 5335 5335 5336 5336 5336 5337 5338 5338 5339 5340 5340 5341 5342 5343 5345 5347 5349 5350 5351 5351 5352 5352 5352 5353 5354
5341 5341 5341 5340 5339 5339 5338 5338 5338 5338 5338 5337 5337 5337 5337 5337 5337 5336 5336 5335 5335 5334 5334 5333 5333 5332 5331 5330 5329 5329 5329 5328 5328 5328 5328 5327 5327 5327 5327 5327 5327 5326 5326 5326 5325 5325 5325 5325 5325 5325 5325 5326 5326 5326 5327 5327 5327 5328 5329 5329 5330 5331 5332 5332 5333 5333 5334 5334 5335 5336 5337 5338 5338 5339 5340 5342 5343 5345 5347 5348 5348 5349 5349 5350 5351 5352
5340 5339 5339 5338 5338 5337 5337 5336 5336 5336 5336 5335 5335 5335 5335 5335 5335 5334 5334 5333 5333 5332 5331 5331 5330 5329 5328 5328 5327 5326 5326 5325 5325 5325 5324 5324 5324 5323 5323 5323 5323 5322 5322 5322 5321 5321 5321 5321 5321 5321 5321 5322 5322 5322 5322 5322 5323 5324 5324 5325 5326 5327 5328 5328 5329 5329 5330 5331 5332 5333 5334 5335 5335 5336 5337 5338 5340 5342 5343 5344 5345 5346 5347 5347 5348 5349
5338 5338 5337 5336 5336 5335 5335 5335 5334 5334 5334 5334 5334 5334 5333 5333 5333 5332 5332 5331 5330 5330 5329 5328 5328 5327 5326 5325 5324 5323 5322 5322 5322 5321 5321 5320 5320 5319 5319 5319 5318 5318 5318 5317 5317 5316 5316 5316 5316 5317 5317 5317 5318 5318 5318 5318 5318 5319 5320 5321 5322 5323 5323 5324 5325 5326 5327 5328 5329 5330 5331 5332 5332 5333 5334 5335 5337 5338 5339 5341 5342 5343 5344 5345 5346 5347
5336 5336 5335 5334 5334 5333 5333 5333 5333 5333 5333 5332 5332 5332 5331 5331 5331 5330 5329 5329 5328 5327 5327 5326 5325 5324 5323 5322 5321 5320 5319 5318 5318 5317 5317 5316 5316 5315 5315 5314 5314 5313 5313 5312 5312 5312 5311 5311 5311 5311 5312 5312 5313 5313 5313 5313 5314 5315 5315 5316 5318 5318 5319 5320 5321 5322 5323 5324 5325 5326 5327 5328 5329 5330 5331 5333 5333 5335 5336 5338 5339 5340 5341 5343 5344 5345
5334 5334 5333 5333 5333 5332 5332 5332 5331 5331 5331 5330 5330 5330 5329 5329 5328 5328 5327 5327 5326 5325 5324 5323 5322 5321 5320 5319 5318 5317 5316 5315 5314 5313 5312 5312 5311 5310 5310 5309 5309 5308 5308 5307 5307 5306 5306 5306 5306 5306 5307 5307 5308 5308 5308 5309 5309 5310 5311 5312 5313 5314 5315 5316 5317 5318 5319 5320 5321 5323 5323 5325 5326 5327 5328 5329 5331 5332 5333 5335 5336 5338 5339 5340 5342 5343
5333 5332 5332 5331 5331 5331 5330 5330 5330 5329 5329 5328 5328 5328 5327 5327 5326 5326 5325 5324 5323 5322 5321 5320 5319 5318 5317 5316 5315 5314 5313 5311 5310 5309 5308 5308 5307 5306 5305 5305 5304 5303 5303 5303 5302 5302 5301 5301 5301 5302 5302 5302 5302 5303 5303 5304 5304 5305 5306 5307 5308 5309 5310 5311 5313 5314 5315 5316 5318 5318 5320 5321 5323 5324 5325 5326 5328 5329 5331 5332 5334 5335 5337 5338 5340 5341
5331 5330 5330 5330 5329 5329 5329 5328 5328 5327 5327 5326 5326 5325 5325 5324 5324 5323 5323 5322 5321 5320 5318 5317 5316 5315 5314 5313 5312 5311 5310 5308 5307 5306 5305 5304 5303 5302 5301 5300 5300 5299 5298 5298 5298 5297 5297 5297 5297 5297 5297 5298 5298 5298 5298 5299 5300 5300 5301 5302 5303 5304 5305 5307 5308 5309 5311 5312 5313 5314 5316 5317 5319 5320 5322 5323 5325 5327 5328 5330 5331 5333 5334 5336 5338 5339
5329 5329 5328 5328 5328 5328 5327 5327 5326 5325 5325 5324 5323 5323 5323 5322 5322 5321 5320 5319 5318 5317 5316 5315 5313 5313 5312 5311 5309 5308 5307 5306 5305 5303 5302 5301 5300 5299 5298 5297 5296 5295 5294 5294 5293 5293 5293 5293 5293 5293 5293 5293 5294 5294 5294 5295 5295 5296 5297 5298 5299 5300 5301 5302 5304 5305 5306 5308 5309 5310 5312 5313 5315 5317 5319 5320 5322 5324 5326 5327 5329 5331 5332 5334 5335 5337
5328 5327 5327 5327 5326 5326 5325 5324 5324 5323 5323 5322 5322 5321 5321 5320 5319 5319 5318 5317 5316 5314 5313 5312 5311 5310 5309 5308 5307 5306 5305 5304 5303 5301 5300 5298 5297 5296 5294 5293 5292 5292 5291 5290 5289 5289 5289 5289 5289 5289 5289 5289 5290 5290 5290 5291 5291 5292 5293 5294 5295 5296 5297 5298 5300 5301 5303 5304 5305 5307 5308 5310 5312 5314 5316 5318 5319 5321 5323 5325 5327 5328 5330 5332 5333 5335
5326 5326 5325 5325 5324 5324 5323 5323 5322 5321 5321 5320 5319 5319 5318 5318 5317 5316 5315 5314 5313 5312 5311 5310 5309 5308 5307 5306 5305 5304 5303 5302 5300 5299 5298 5296 5295 5293 5292 5291 5289 5288 5288 5287 5286 5286 5285 5285 5285 5285 5286 5286 5286 5287 5288 5288 5288 5289 5289 5290 5291 5293 5293 5295 5296 5297 5299 5300 5302 5303 5305 5307 5309 5311 5313 5315 5317 5319 5321 5323 5325 5326 5328 5329 5331 5333